Location: *
(45.9500°N, 9.0833°E)
Time: 18:28:46
(UTC+00:00)

USA 186 - Pass Details

Date: 03 March 2021
Orbit: 261 x 429 km, 96.9° (Epoch: 15 April)

Event Time Altitude Azimuth Distance (km) Brightness Sun altitude
Exits shadow 18:28:20 16° 29° (NNE) 890 3.2 -13.9°
Drops below altitude 10° 18:29:09 10° 15° (NNE) 1,164 3.9 -14.0°
Sets 18:31:15 0° 0° (N) 2,027 5.3 -14.4°
